sat.trackr.live / text

‹ back to catalog

STARLINK-34660

NORAD 64800 · 2025-150L

PAYLOAD ACTIVE UNKNOWN

§ Identity

Operator
Country
US
Launch date
2025-07-16
Launch site
AFWTR
Launch vehicle
Mass (kg)
RCS (m²)

Purposes: comms

External: N2YO · Heavens-Above · Gunter

§ Orbital elements

Epoch: 2026-05-25T03:57:17.309088Z

Period
96.11 min
Inclination
70.0006°
Eccentricity
0.0003012
Mean motion
14.98335279 rev/d
Perigee alt
569.9 km
Apogee alt
574.1 km
Semi-major
6,950.2 km
B*
2.4664e-4
RAAN
301.5696°
Arg perigee
263.9494°
Mean anomaly
96.1322°
Rev number
4,797

§ Raw data

STARLINK-346601 64800U 25150L   26145.16478367  .00002851  00000+0  24664-3 0  99912 64800  70.0006 301.5696 0003012 263.9494  96.1322 14.98335279 47977

JSON: /api/v1/satellites/64800 · /tle

For live sub-satellite position, see the globe view (requires WebGL).

§ Visibility from observer

Set your observer location to see the next 7 days of passes ≥ 10°. The values pass through the URL so the page stays shareable.

No JS? Fill the form by hand. The geolocation button needs JavaScript.